Regional Weather Roundup
Issued by NWS Newport/Morehead, NC

Current Version | Previous Version | Graphics & Text | Print | Product List | Glossary Off
Versions: 1 2 3 4 5 6 7 8 9 10 11 12 13 14 15 16 17 18 19 20 21 22 23 24 25 26 27 28 29 30 31 32 33 34 35 36 37 38 39 40 41 42 43 44 45 46 47 48 49 50

000
ASUS42 KMHX 070525
RWRMHX
WEATHER ROUNDUP FOR EASTERN NORTH CAROLINA
NATIONAL WEATHER SERVICE NEWPORT/MOREHEAD CITY NC
1200 AM EST SUN FEB 07 2016

NOTE: "FAIR" INDICATES FEW OR NO CLOUDS BELOW 12,000 FEET
WITH NO SIGNIFICANT WEATHER AND/OR OBSTRUCTIONS TO VISIBILITY

NCZ015>017-031-032-045>047-102-103-070600-
NORTH COAST

CITY           SKY/WX    TMP DP  RH WIND       PRES   REMARKS
EDENTON        PTCLDY    38  33  82 NE3       30.24F
ELIZABETH CITY PTCLDY    37  32  82 N10       30.23F
KITTY HAWK     CLOUDY    41  32  69 N6        30.21F
MANTEO         CLOUDY    41  34  74 NE10      30.22F

$$

NCZ045>047-081-094-103-104-070600-
CENTRAL COAST

CITY           SKY/WX    TMP DP  RH WIND       PRES   REMARKS
FRISCO         MOCLDY    45  38  76 NE13G23   30.18F
SWANQUARTER      N/A     41 N/A N/A NE12G20   30.18S

$$

NCZ095-097-098-100-101-070600-
SOUTHERN COAST

CITY           SKY/WX    TMP DP  RH WIND       PRES   REMARKS
BEAUFORT       CLOUDY    43  36  76 NE13G20   30.15F
CEDAR ISLAND     N/A     43 N/A N/A VRB17G28  30.24S
JACKSONVILLE   LGT RAIN  43  31  62 N12       30.22R
PINEY ISLAND   CLOUDY   N/A N/A N/A MISG      30.18F
WILMINGTON     RAIN      41  35  79 N12       30.20R


$$

NCZ011>013-027>030-043-044-078>080-089-090>093-098-070600-
COASTAL PLAIN

CITY           SKY/WX    TMP DP  RH WIND       PRES   REMARKS
AHOSKIE        CLOUDY    34  30  85 N3        30.25S
CLINTON        LGT RAIN  42  29  59 N8        30.24F
ELIZABETHTOWN  LGT RAIN  39  33  77 N3        30.20F
GOLDSBORO      PTCLDY    43  25  49 NW5       30.25R
GREENVILLE     CLOUDY    41  34  75 CALM      30.27R
HAVELOCK       CLOUDY    43  32  65 N15       30.19F
KENANSVILLE      N/A     42  28  58 CALM      30.25F
KINSTON        CLOUDY    42  32  67 NW5       30.27R
NEW BERN       CLOUDY    42  32  67 NE10      30.20F
RICHLANDS      CLOUDY    41  28  60 NW7       30.24R
ROCKY MOUNT    CLOUDY    39  28  64 CALM      30.28R
WASHINGTON     CLOUDY    40  33  77 CALM      30.24R
WHITEVILLE     LGT RAIN  39  35  87 NE6       30.19F

$$

AMZ130-135-150-152-154-156-158-170-250-252-270-ANZ085-086-088-633-658-670-070600-
MARINE OBSERVATIONS

STATION/POSITION TIME  TEMP    WIND        PRES    WAVE   SWELL
                       AIR SEA DIR/SP/G            HT/PER HT/PER
                 (UTC) (F)     (DEG/KT/KT) (MB)    (FT/S) (FT/S)
CHESAPEAKE LIGHT 0500   40      20/ 10/ 12 1024.8
64 E VA BEACH    0450   45 53   10/ 16/ 17 1023.2    4/ 9   3/ 9
DUCK             0500   42 45   10/ 14/ 17 1022.9
2 E DUCK         0511      44                N/A     4/11   2/11
OREGON INLET     0500   43 46   10/ 13/ 18 1022.7
13E OREGON INLT  0500      46                N/A     6/11   3/11
HATTERAS CG      0500   45 51   20/ 20/ 24 1021.4
DIAMOND BUOY     0450   54 71   30/ 17/ 23 1021.1    6/ 9   3/ 9
CAPE LOOKOUT     NOT AVBL
BEAUFORT LAB     0500   43 49   20/ 14/ 18 1020.0
30 SE NEW RVR IN 0508   48 64              1018.3
30 SE NEW RVR IN 0425      64                N/A     7/ 6   2/11
27 SE WRIGHTSVLE 0408   52 68  360/ 23/ 29 1019.2
5 SE WRIGHTSVLE  NOT AVBL
225 S CAPE HAT   0450   64 69  110/ 19/ 21   N/A     7/10   5/10
41 SE CHARLESTON 0450   49 64   20/ 31/ 39 1015.6    9/ 7   3/ 9

$$




USA.gov is the U.S. government's official web portal to all federal, state and local government web resources and services.